TimeCDT,TemperatureF,Dew PointF,Humidity,Sea Level PressureIn,VisibilityMPH,Wind Direction,Wind SpeedMPH,Gust SpeedMPH,PrecipitationIn,Events,Conditions,WindDirDegrees,DateUTC
12:54 AM,68.0,62.1,81,29.90,8.0,SSE,4.6,-,N/A,,Clear,160,2013-05-19 05:54:00
1:54 AM,66.9,62.1,84,29.90,7.0,SE,5.8,-,N/A,,Clear,130,2013-05-19 06:54:00
2:54 AM,66.9,62.1,84,29.90,7.0,SSE,5.8,-,N/A,,Clear,160,2013-05-19 07:54:00
3:54 AM,64.9,62.1,90,29.90,5.0,SSE,5.8,-,N/A,,Clear,160,2013-05-19 08:54:00
4:54 AM,64.0,61.0,90,29.91,4.0,Calm,Calm,-,N/A,,Mostly Cloudy,0,2013-05-19 09:54:00
5:54 AM,64.9,62.1,90,29.90,3.0,SE,5.8,-,N/A,,Clear,140,2013-05-19 10:54:00
6:54 AM,66.2,62.6,88,29.89,5.0,ESE,8.1,-,N/A,,Haze,120,2013-05-19 11:54:00
7:54 AM,69.1,63.0,81,29.91,6.0,SSE,5.8,-,N/A,,Haze,150,2013-05-19 12:54:00
8:54 AM,73.0,64.0,73,29.88,8.0,SE,8.1,-,N/A,,Clear,140,2013-05-19 13:54:00
9:54 AM,77.0,66.0,69,29.87,9.0,South,11.5,-,N/A,,Clear,170,2013-05-19 14:54:00
10:54 AM,78.1,66.0,66,29.89,10.0,SSE,10.4,17.3,N/A,,Partly Cloudy,150,2013-05-19 15:54:00
11:54 AM,82.0,66.9,60,29.86,10.0,SE,9.2,-,N/A,,Overcast,140,2013-05-19 16:54:00
12:54 PM,84.0,69.1,61,29.86,10.0,South,10.4,-,N/A,,Mostly Cloudy,180,2013-05-19 17:54:00
1:54 PM,82.4,68.0,62,29.80,10.0,SSE,11.5,-,N/A,,Clear,150,2013-05-19 18:54:00
2:54 PM,86.0,68.0,55,29.76,9.0,SSE,17.3,25.3,N/A,,Clear,150,2013-05-19 19:54:00
3:54 PM,88.0,68.0,51,29.74,9.0,SSE,18.4,29.9,N/A,,Clear,160,2013-05-19 20:54:00
4:54 PM,88.0,68.0,51,29.72,9.0,South,15.0,23.0,N/A,,Partly Cloudy,170,2013-05-19 21:54:00
5:54 PM,87.1,66.9,51,29.70,10.0,South,13.8,26.5,N/A,,Scattered Clouds,170,2013-05-19 22:54:00
6:54 PM,84.9,68.0,57,29.71,9.0,South,16.1,-,N/A,,Partly Cloudy,170,2013-05-19 23:54:00
7:54 PM,82.0,68.0,62,29.74,8.0,South,4.6,-,N/A,,Clear,180,2013-05-20 00:54:00
8:54 PM,82.0,68.0,62,29.72,9.0,SSE,10.4,-,N/A,,Clear,150,2013-05-20 01:54:00
9:54 PM,81.0,68.0,65,29.71,9.0,SSE,15.0,20.7,N/A,,Clear,160,2013-05-20 02:54:00
10:54 PM,80.6,68.0,65,29.75,9.0,South,23.0,29.9,N/A,,Clear,180,2013-05-20 03:54:00
11:54 PM,78.1,66.9,68,29.74,10.0,South,18.4,21.9,N/A,,Clear,190,2013-05-20 04:54:00